DW7589 Weather Reports


time (UTC)temp
C
wind
direction
speed
KPH
gust
KPH
rain 1hr
cm
rain 24hr
cm
rain mn
cm
humidity
%
barometer
mb
20260508023921 16 0 0.0 0.0 0.00 0.03 0.03 88 1014.9
20260508022921 16 0 0.0 0.0 0.00 0.03 0.03 87 1014.4
20260508022421 16 0 0.0 0.0 0.00 0.03 0.03 87 1014.6
20260508021920 16 0 0.0 0.0 0.00 0.03 0.03 87 1014.9
20260508021421 16 0 0.0 0.0 0.00 0.03 0.03 87 1014.7
20260508020421 16 0 0.0 0.0 0.03 0.03 0.03 86 1014.5
20260508015921 16 0 0.0 0.0 0.03 0.03 0.03 86 1014.7
20260508015420 17 0 0.0 0.0 0.03 0.03 0.03 87 1014.6
20260508014921 17 0 0.0 0.0 0.03 0.03 0.03 87 1014.6
20260508014420 17 0 0.0 0.0 0.03 0.03 0.03 86 1014.5
20260508013421 17 0 0.0 0.0 0.03 0.03 0.03 86 1014.7
20260508012920 17 0 0.0 0.0 0.03 0.03 0.03 86 1014.5
20260508011920 17 0 0.0 0.0 0.03 0.03 0.03 86 1014.7
20260508010920 17 0 0.0 0.0 0.03 0.03 0.03 84 1015.1
20260508010421 17 0 0.0 0.0 0.00 0.00 0.00 84 1014.8
20260508005921 17 0 0.0 0.0 0.00 0.00 0.00 83 1014.7
20260508005420 17 0 0.0 0.0 0.00 0.00 0.00 83 1015.1
20260508004921 17 0 0.0 0.0 0.00 0.00 0.00 83 1015.3
20260508004420 17 0 0.0 0.0 0.00 0.00 0.00 83 1015.2
20260508003921 17 0 0.0 0.0 0.00 0.00 0.00 83 1014.9
20260508003422 17 0 0.0 0.0 0.00 0.00 0.00 83 1014.9
20260508002922 17 0 0.0 0.0 0.00 0.00 0.00 82 1014.6
20260508002421 18 0 0.0 0.0 0.00 0.00 0.00 81 1014.6
20260508001921 18 0 0.0 0.0 0.00 0.00 0.00 81 1014.5
20260508000921 18 0 0.0 0.0 0.00 0.00 0.00 80 1014.9
20260508000420 18 0 0.0 0.0 0.00 0.00 0.00 80 1015.1
20260507235921 18 0 0.0 0.0 0.00 0.00 0.00 79 1014.9
20260507234421 18 0 0.0 0.0 0.00 0.00 0.00 76 1014.8
20260507233920 18 0 0.0 0.0 0.00 0.00 0.00 76 1015.3
20260507233421 18 0 0.0 0.0 0.00 0.00 0.00 75 1015.3
20260507232920 18 0 0.0 0.0 0.00 0.00 0.00 74 1015.7
20260507231920 18 0 0.0 0.0 0.00 0.00 0.00 73 1015.0
20260507231421 19 0 0.0 0.0 0.00 0.00 0.00 72 1014.7
20260507230920 19 0 0.0 0.0 0.00 0.00 0.00 71 1015.1
20260507230422 19 0 0.0 0.0 0.00 0.00 0.00 71 1014.9
20260507225920 19 0 0.0 0.0 0.00 0.00 0.00 70 1015.2
20260507225420 19 0 0.0 0.0 0.00 0.00 0.00 70 1015.7
20260507224921 19 0 0.0 0.0 0.00 0.00 0.00 68 1015.7
20260507224420 19 0 0.0 0.0 0.00 0.00 0.00 68 1016.2
20260507223921 19 0 0.0 0.0 0.00 0.00 0.00 67 1015.7
20260507223420 19 0 0.0 0.0 0.00 0.00 0.00 67 1015.9
20260507222922 20 0 0.0 0.0 0.00 0.00 0.00 67 1015.4
20260507221921 20 0 0.0 0.0 0.00 0.00 0.00 66 1015.4
20260507221420 20 0 0.0 0.0 0.00 0.00 0.00 65 1015.3
20260507220921 20 0 0.0 0.0 0.00 0.00 0.00 65 1015.5
20260507215921 20 0 0.0 0.0 0.00 0.00 0.00 64 1016.0
20260507215420 20 0 0.0 0.0 0.00 0.00 0.00 64 1015.7
20260507214921 20 0 0.0 0.0 0.00 0.00 0.00 63 1015.9
20260507214420 20 0 0.0 0.0 0.00 0.00 0.00 63 1016.4
20260507213921 20 0 0.0 0.0 0.00 0.00 0.00 64 1016.6
20260507213421 20 0 0.0 0.0 0.00 0.00 0.00 65 1016.9
20260507212921 20 0 0.0 0.0 0.00 0.00 0.00 64 1016.4
20260507212422 20 0 0.0 0.0 0.00 0.00 0.00 64 1015.1
20260507211921 20 0 0.0 0.0 0.00 0.00 0.00 66 1015.7
20260507211421 20 0 0.0 0.0 0.00 0.00 0.00 64 1015.5
20260507210920 20 0 0.0 0.0 0.00 0.00 0.00 64 1015.8
20260507210421 20 0 0.0 0.0 0.00 0.00 0.00 64 1015.7
20260507205921 20 0 0.0 0.0 0.00 0.00 0.00 64 1015.7
20260507205422 20 0 0.0 0.0 0.00 0.00 0.00 64 1016.2
20260507204921 20 0 0.0 0.0 0.00 0.00 0.00 62 1016.6
20260507204420 20 0 0.0 0.0 0.00 0.00 0.00 62 1016.3
20260507203420 20 0 0.0 0.0 0.00 0.00 0.00 63 1016.2
20260507202921 21 0 0.0 0.0 0.00 0.00 0.00 64 1016.6
20260507202421 20 0 0.0 0.0 0.00 0.00 0.00 63 1016.8
20260507201921 20 0 0.0 0.0 0.00 0.00 0.00 63 1016.5
20260507201421 20 0 0.0 0.0 0.00 0.00 0.00 63 1016.8
20260507200921 20 0 0.0 0.0 0.00 0.00 0.00 62 1016.9
20260507200421 20 0 0.0 0.0 0.00 0.00 0.00 65 1016.9
20260507195921 20 0 0.0 0.0 0.00 0.00 0.00 63 1016.9
20260507195421 20 0 0.0 0.0 0.00 0.00 0.00 63 1017.1
20260507194922 20 0 0.0 0.0 0.00 0.00 0.00 62 1017.0
20260507194421 20 0 0.0 0.0 0.00 0.00 0.00 61 1017.1
20260507193422 20 0 0.0 0.0 0.00 0.00 0.00 62 1017.4
20260507192921 20 0 0.0 0.0 0.00 0.00 0.00 63 1017.2
20260507192420 20 0 0.0 0.0 0.00 0.00 0.00 64 1017.1
20260507191921 20 0 0.0 0.0 0.00 0.00 0.00 65 1017.0
20260507191421 20 0 0.0 0.0 0.00 0.00 0.00 66 1017.3
20260507190920 20 0 0.0 0.0 0.00 0.00 0.00 67 1017.5
20260507190421 20 0 0.0 0.0 0.00 0.00 0.00 67 1017.4
20260507185921 20 0 0.0 0.0 0.00 0.00 0.00 65 1017.4
20260507185421 20 0 0.0 0.0 0.00 0.00 0.00 65 1017.5
20260507184920 20 0 0.0 0.0 0.00 0.00 0.00 67 1017.1
20260507184421 20 0 0.0 0.0 0.00 0.00 0.00 66 1017.3
20260507183920 20 0 0.0 0.0 0.00 0.00 0.00 70 1017.4
20260507183420 19 0 0.0 0.0 0.00 0.00 0.00 68 1017.6
20260507182921 18 0 0.0 0.0 0.00 0.00 0.00 71 1017.5
20260507181920 18 0 0.0 0.0 0.00 0.00 0.00 67 1017.7
20260507181421 18 0 0.0 0.0 0.00 0.00 0.00 69 1017.8
20260507180922 18 0 0.0 0.0 0.00 0.00 0.00 68 1017.7
20260507180421 18 0 0.0 0.0 0.00 0.00 0.00 67 1018.1
20260507175921 18 0 0.0 0.0 0.00 0.00 0.00 68 1018.2
20260507175421 18 0 0.0 0.0 0.00 0.00 0.00 69 1018.3
20260507173921 18 0 0.0 0.0 0.00 0.00 0.00 70 1018.9
20260507173421 18 0 0.0 0.0 0.00 0.00 0.00 69 1018.9
20260507172922 18 0 0.0 0.0 0.00 0.00 0.00 72 1018.7
20260507172421 18 0 0.0 0.0 0.00 0.00 0.00 71 1018.4
20260507171921 17 0 0.0 0.0 0.00 0.00 0.00 70 1018.5
20260507171421 17 0 0.0 0.0 0.00 0.00 0.00 70 1018.7
20260507170922 17 0 0.0 0.0 0.00 0.00 0.00 70 1018.5
20260507170421 17 0 0.0 0.0 0.00 0.00 0.00 71 1018.6
20260507165421 17 0 0.0 0.0 0.00 0.00 0.00 71 1018.7
20260507164421 17 0 0.0 0.0 0.00 0.00 0.00 71 1018.8
20260507163921 17 0 0.0 0.0 0.00 0.00 0.00 71 1018.6
20260507163421 17 0 0.0 0.0 0.00 0.00 0.00 72 1018.3
20260507162920 17 0 0.0 0.0 0.00 0.00 0.00 72 1018.5
20260507162421 17 0 0.0 0.0 0.00 0.00 0.00 72 1018.5
20260507161921 17 0 0.0 0.0 0.00 0.00 0.00 72 1018.6
20260507160921 17 0 0.0 0.0 0.00 0.00 0.00 71 1018.8
20260507160421 17 0 0.0 0.0 0.00 0.00 0.00 70 1018.7
20260507155921 17 0 0.0 0.0 0.00 0.03 0.00 72 1018.7
20260507154922 17 0 0.0 0.0 0.00 0.03 0.00 73 1019.1
20260507154421 16 0 0.0 0.0 0.00 0.03 0.00 73 1019.1
20260507153921 16 0 0.0 0.0 0.00 0.03 0.00 72 1019.2
20260507153421 16 0 0.0 0.0 0.00 0.03 0.00 73 1019.2
20260507152921 16 0 0.0 0.0 0.00 0.03 0.00 74 1019.1
20260507152422 16 0 0.0 0.0 0.00 0.03 0.00 75 1019.2
20260507151921 16 0 0.0 0.0 0.00 0.03 0.00 76 1018.9
20260507151423 15 0 0.0 0.0 0.00 0.03 0.00 76 1018.8
20260507150922 15 0 0.0 0.0 0.00 0.03 0.00 76 1018.6
20260507145922 15 0 0.0 0.0 0.00 0.03 0.00 77 1018.7
20260507145422 15 0 0.0 0.0 0.00 0.03 0.00 77 1018.9
20260507144921 15 0 0.0 0.0 0.00 0.03 0.00 78 1018.9
20260507144422 15 0 0.0 0.0 0.00 0.03 0.00 79 1018.8
20260507143921 15 0 0.0 0.0 0.00 0.03 0.00 78 1018.8
20260507143421 15 0 0.0 0.0 0.00 0.03 0.00 79 1018.9
20260507142921 15 0 0.0 0.0 0.00 0.03 0.00 80 1019.0
20260507142422 14 0 0.0 0.0 0.00 0.03 0.00 79 1019.1
20260507140923 14 0 0.0 0.0 0.00 0.03 0.00 81 1019.5
20260507140422 13 0 0.0 0.0 0.00 0.03 0.00 82 1019.4
20260507135921 13 0 0.0 0.0 0.00 0.03 0.00 82 1019.3
20260507135421 13 0 0.0 0.0 0.00 0.03 0.00 83 1019.4
20260507134422 13 0 0.0 0.0 0.00 0.03 0.00 84 1019.5
20260507133422 13 0 0.0 0.0 0.00 0.03 0.00 85 1019.6
20260507132923 13 0 0.0 0.0 0.00 0.03 0.00 85 1019.7
20260507132421 13 0 0.0 0.0 0.00 0.03 0.00 86 1019.6
20260507131922 13 0 0.0 0.0 0.00 0.03 0.00 86 1019.6
20260507131422 13 0 0.0 0.0 0.00 0.03 0.00 86 1019.5
20260507130921 13 0 0.0 0.0 0.00 0.03 0.00 86 1019.4
20260507130422 13 0 0.0 0.0 0.00 0.03 0.00 87 1019.4
20260507125921 13 0 0.0 0.0 0.00 0.03 0.00 87 1019.3
20260507125422 13 0 0.0 0.0 0.00 0.03 0.00 87 1019.4
20260507124922 13 0 0.0 0.0 0.00 0.03 0.00 87 1019.3
20260507124421 13 0 0.0 0.0 0.00 0.03 0.00 88 1019.2
20260507123922 13 0 0.0 0.0 0.00 0.03 0.00 88 1019.4
20260507123422 13 0 0.0 0.0 0.00 0.03 0.00 88 1019.5
20260507122921 13 0 0.0 0.0 0.00 0.03 0.00 88 1019.5
20260507122421 13 0 0.0 0.0 0.00 0.03 0.00 88 1019.4
20260507121423 13 0 0.0 0.0 0.00 0.03 0.00 88 1019.0
20260507120921 13 0 0.0 0.0 0.00 0.03 0.00 88 1018.6
20260507120422 13 0 0.0 0.0 0.00 0.03 0.00 88 1018.5
20260507115922 13 0 0.0 0.0 0.00 0.03 0.00 88 1018.6
20260507115421 13 0 0.0 0.0 0.00 0.03 0.00 88 1018.6
20260507114921 13 0 0.0 0.0 0.00 0.03 0.00 88 1018.7
20260507113921 13 0 0.0 0.0 0.00 0.03 0.00 87 1018.7
20260507113422 13 0 0.0 0.0 0.00 0.03 0.00 87 1018.6
20260507112921 13 0 0.0 0.0 0.00 0.03 0.00 87 1018.2
20260507112421 13 0 0.0 0.0 0.00 0.03 0.00 86 1018.2
20260507111921 13 0 0.0 0.0 0.00 0.03 0.00 86 1018.3
20260507111422 13 0 0.0 0.0 0.00 0.03 0.00 86 1018.4
20260507110921 13 0 0.0 0.0 0.00 0.03 0.00 86 1018.7
20260507110421 13 0 0.0 0.0 0.00 0.03 0.00 86 1018.8
20260507105422 13 0 0.0 0.0 0.00 0.03 0.00 87 1018.8
20260507104921 13 0 0.0 0.0 0.00 0.03 0.00 87 1018.9
20260507104422 13 0 0.0 0.0 0.00 0.03 0.00 87 1018.9
20260507103421 13 0 0.0 0.0 0.00 0.03 0.00 88 1018.5
20260507102923 13 0 0.0 0.0 0.00 0.03 0.00 88 1018.2
20260507102422 13 0 0.0 0.0 0.00 0.03 0.00 88 1018.1
20260507101921 13 0 0.0 0.0 0.00 0.03 0.00 88 1018.1
20260507101422 13 0 0.0 0.0 0.00 0.03 0.00 88 1018.2
20260507100923 14 0 0.0 0.0 0.00 0.03 0.00 88 1017.9
20260507100422 14 0 0.0 0.0 0.00 0.03 0.00 88 1018.0
20260507095923 14 0 0.0 0.0 0.00 0.03 0.00 88 1018.0
20260507095423 14 0 0.0 0.0 0.00 0.03 0.00 88 1017.9
20260507094921 14 0 0.0 0.0 0.00 0.03 0.00 88 1018.0
20260507093921 14 0 0.0 0.0 0.00 0.03 0.00 88 1017.6
20260507092921 14 0 0.0 0.0 0.00 0.03 0.00 88 1017.2
20260507092422 14 0 0.0 0.0 0.00 0.03 0.00 88 1017.0
20260507091921 14 0 0.0 0.0 0.00 0.03 0.00 88 1016.8
20260507091423 14 0 0.0 0.0 0.00 0.03 0.00 88 1016.7
20260507090922 14 0 0.0 0.0 0.00 0.03 0.00 88 1016.5
20260507090421 14 0 0.0 0.0 0.00 0.03 0.00 88 1016.5
20260507085923 14 0 0.0 0.0 0.00 0.03 0.00 88 1016.5
20260507085423 14 0 0.0 0.0 0.00 0.03 0.00 89 1016.3
20260507084921 14 0 0.0 0.0 0.00 0.03 0.00 89 1016.3
20260507084423 14 0 0.0 0.0 0.00 0.03 0.00 89 1016.2
20260507083921 14 0 0.0 0.0 0.00 0.03 0.00 89 1016.2
20260507083423 14 0 0.0 0.0 0.00 0.03 0.00 89 1016.1
20260507082922 14 0 0.0 0.0 0.00 0.03 0.00 89 1016.1
20260507082421 14 0 0.0 0.0 0.00 0.03 0.00 89 1016.0
20260507081922 14 0 0.0 0.0 0.00 0.03 0.00 89 1015.9
20260507080422 14 0 0.0 0.0 0.00 0.03 0.00 88 1015.8
20260507075422 14 0 0.0 0.0 0.00 0.03 0.00 88 1016.0
20260507074921 14 0 0.0 0.0 0.00 0.03 0.00 88 1016.0
20260507074422 14 0 0.0 0.0 0.00 0.03 0.00 88 1015.9
20260507073921 14 0 0.0 0.0 0.00 0.03 0.00 88 1015.8
20260507073422 14 0 0.0 0.0 0.00 0.03 0.00 88 1015.8
20260507072923 14 0 0.0 0.0 0.00 0.03 0.00 88 1015.7
20260507072422 14 0 0.0 0.0 0.00 0.03 0.00 88 1015.6
20260507071422 14 0 0.0 0.0 0.00 0.03 0.00 87 1015.6
20260507070422 14 0 0.0 0.0 0.00 0.03 0.00 87 1015.6
20260507065922 14 0 0.0 0.0 0.00 0.03 0.00 87 1015.6
20260507065421 14 0 0.0 0.0 0.00 0.03 0.00 87 1015.7
20260507064923 14 0 0.0 0.0 0.00 0.03 0.00 87 1015.7
20260507064421 14 0 0.0 0.0 0.00 0.03 0.00 87 1015.7
20260507063922 14 0 0.0 0.0 0.00 0.03 0.00 87 1015.8
20260507063422 14 0 0.0 0.0 0.00 0.03 0.00 87 1015.8
20260507062921 14 0 0.0 0.0 0.00 0.03 0.00 87 1015.8
20260507062422 14 0 0.0 0.0 0.00 0.03 0.00 87 1015.7
20260507061922 14 0 0.0 0.0 0.00 0.03 0.00 87 1015.9
20260507061422 14 0 0.0 0.0 0.00 0.03 0.00 87 1016.0
20260507060922 14 0 0.0 0.0 0.00 0.03 0.00 87 1015.9
20260507055922 14 0 0.0 0.0 0.00 0.03 0.00 87 1015.6
20260507055421 14 0 0.0 0.0 0.00 0.03 0.00 87 1015.6
20260507054923 15 0 0.0 0.0 0.00 0.03 0.00 87 1015.8
20260507054423 15 0 0.0 0.0 0.00 0.03 0.00 87 1015.8
20260507053922 15 0 0.0 0.0 0.00 0.03 0.00 87 1015.6
20260507053422 15 0 0.0 0.0 0.00 0.03 0.00 86 1015.7
20260507052922 15 0 0.0 0.0 0.00 0.03 0.00 86 1015.7
20260507052421 15 0 0.0 0.0 0.00 0.03 0.00 86 1015.8
20260507051922 15 0 0.0 0.0 0.00 0.03 0.00 86 1015.9
20260507051422 15 0 0.0 0.0 0.00 0.03 0.00 85 1016.0
20260507050921 15 0 0.0 0.0 0.00 0.03 0.00 86 1016.0
20260507050424 15 0 0.0 0.0 0.00 0.03 0.00 86 1016.0
20260507045422 15 0 0.0 0.0 0.00 0.03 0.03 85 1015.9
20260507044422 15 0 0.0 0.0 0.00 0.03 0.03 85 1015.9
20260507043921 15 0 0.0 0.0 0.00 0.03 0.03 84 1015.7
20260507043422 15 0 0.0 0.0 0.00 0.03 0.03 84 1015.8
20260507042921 15 0 0.0 0.0 0.00 0.03 0.03 84 1015.8
20260507042422 15 0 0.0 0.0 0.00 0.03 0.03 84 1015.9
20260507041922 15 0 0.0 0.0 0.00 0.03 0.03 84 1016.1
20260507041423 15 0 0.0 0.0 0.00 0.03 0.03 84 1016.0
20260507040922 15 0 0.0 0.0 0.00 0.03 0.03 84 1016.0
20260507040422 15 0 0.0 0.0 0.00 0.03 0.03 84 1016.1
20260507035922 16 0 0.0 0.0 0.00 0.03 0.03 84 1016.1
20260507035423 16 0 0.0 0.0 0.00 0.03 0.03 84 1016.3
20260507034922 16 0 0.0 0.0 0.00 0.03 0.03 83 1016.3
20260507033922 16 0 0.0 0.0 0.00 0.03 0.03 83 1016.2
20260507033423 16 0 0.0 0.0 0.00 0.03 0.03 83 1016.3
20260507032922 16 0 0.0 0.0 0.00 0.03 0.03 83 1016.2
20260507032422 16 0 0.0 0.0 0.00 0.03 0.03 83 1016.1
20260507031922 16 0 0.0 0.0 0.00 0.03 0.03 83 1016.0
20260507030922 16 0 0.0 0.0 0.00 0.03 0.03 83 1015.8
20260507030422 16 0 0.0 0.0 0.00 0.03 0.03 82 1015.8
20260507025422 16 0 0.0 0.0 0.00 0.03 0.03 82 1015.8
20260507024921 16 0 0.0 0.0 0.00 0.03 0.03 82 1015.7
20260507024422 16 0 0.0 0.0 0.00 0.03 0.03 82 1015.6